Flag for Russia Weather past 2 weeks in Chelyabinsk, Russia

Now
19 °F

Snow flurries. Broken clouds.


Feels Like: 11 °F
Forecast: 6 / 15 °F
Wind: 6 mph from Southeast

Location: Chelyabinsk-Balandino

Current Time: Dec 26, 2014 at 1:10:59 PM

Latest Report: Dec 26, 2014 at 12:30 PM


Visibility: 4 mi

Pressure: 29.27 "Hg

Humidity: 86%

Dew point: 16 °F

Location of ChelyabinskLocation

Historic Weather in Chelyabinsk — Graph

°F

Chelyabinsk temperature yesterday

Maximum temperature yesterday: 23 °F (at 12:00 AM)
Minimum temperature yesterday: 19 °F (at 1:30 AM)
Average temperature yesterday: 21 °F

Past Weeks' High & Low Weather Summary

 TemperatureHumidityPressure
High36 °F (Dec 23, 5:00 AM)100% (Dec 15, 10:00 PM)30.48 "Hg (Dec 15, 10:00 PM)
Low0 °F (Dec 12, 4:30 AM)47% (Dec 13, 10:00 PM)29.27 "Hg (Dec 25, 1:00 PM)
Average22 °F82%30.02 "Hg
* Reported Dec 11 12:00 Noon — Dec 26 12:00 Noon, Chelyabinsk, Weather by CustomWeather, © 2014

Note: Actual official high and low records may vary slightly from our data, if they occured in-between our weather recording intervals... More about our weather records

Advertising

Chelyabinsk weather history for previous 24 hours

 ConditionsComfort  
Time TempWeatherWind HumidityBarometerVisibility
12:00 PM
Dec 26
19 °FSnow flurries. Partly sunny.6 mph86%29.30 "Hg2 mi
11:30 AM19 °FSnow flurries. Partly sunny.6 mph86%29.30 "Hg3 mi
11:00 AM18 °FSnow flurries. Mostly cloudy.6 mph93%29.30 "Hg1 mi
10:30 AM18 °FSnow showers. Ice fog.6 mph86%29.33 "Hg1 mi
10:00 AM18 °FSnow showers. Ice fog.6 mph86%29.33 "Hg1 mi
9:30 AM18 °FSnow showers. Mostly cloudy.6 mph86%29.33 "Hg1 mi
9:00 AM18 °FPartly cloudy.6 mph79%29.36 "HgN/A
8:30 AM19 °FPartly cloudy.6 mph79%29.36 "HgN/A
7:30 AM19 °FPartly cloudy.3 mph79%29.36 "HgN/A
7:00 AM19 °FPartly cloudy.6 mph73%29.36 "HgN/A
6:30 AM18 °FPartly cloudy.6 mph79%29.36 "HgN/A
6:00 AM19 °FPartly cloudy.6 mph73%29.39 "HgN/A
5:30 AM18 °FPartly cloudy.6 mph79%29.39 "HgN/A
5:00 AM18 °FPartly cloudy.6 mph73%29.39 "HgN/A
4:30 AM18 °FPassing clouds.8 mph73%29.39 "HgN/A
4:00 AM19 °FPassing clouds.6 mph73%29.39 "HgN/A
3:30 AM21 °FPassing clouds.8 mph68%29.39 "HgN/A
3:00 AM21 °FPassing clouds.8 mph74%29.39 "HgN/A
2:30 AM16 °FPassing clouds.6 mph79%29.39 "HgN/A
2:00 AM19 °FClear.8 mph73%29.39 "Hg10 mi
1:30 AM19 °FPassing clouds.10 mph79%29.39 "HgN/A
1:00 AM21 °FPartly cloudy.13 mph80%29.39 "Hg4 mi
12:30 AM21 °FPartly cloudy.10 mph80%29.36 "Hg4 mi
12:00 AM23 °FSnow flurries. Partly cloudy.13 mph80%29.36 "Hg4 mi
11:30 PM
Dec 25
23 °FPartly cloudy.13 mph80%29.36 "HgN/A
11:00 PM23 °FPartly cloudy.13 mph86%29.36 "Hg4 mi
10:30 PM23 °FSnow flurries. Mostly cloudy.10 mph86%29.33 "Hg4 mi
10:00 PM23 °FSnow showers. Ice fog.10 mph93%29.33 "Hg1 mi
9:30 PM23 °FSnow flurries. Ice fog.8 mph93%29.33 "Hg2 mi
9:00 PM23 °FSnow flurries. Mostly cloudy.6 mph86%29.33 "Hg3 mi
8:30 PM23 °FSnow flurries. Ice fog.3 mph86%29.33 "Hg3 mi
8:00 PM21 °FSnow flurries. Ice fog.3 mph93%29.30 "Hg3 mi
7:30 PM21 °FSnow flurries. Ice fog.No wind86%29.30 "Hg1 mi
7:00 PM19 °FSnow flurries. Ice fog.6 mph93%29.30 "Hg2 mi
6:30 PM23 °FSnow flurries. Ice fog.6 mph93%29.30 "Hg3 mi
6:00 PM21 °FSnow flurries. Ice fog.6 mph93%29.30 "Hg3 mi
5:30 PM19 °FSnow flurries. Ice fog.6 mph93%29.30 "Hg3 mi
5:00 PM19 °FIce fog.3 mph93%29.30 "Hg3 mi
4:30 PM21 °FMostly cloudy.3 mph86%29.27 "Hg4 mi
4:00 PM21 °FSnow flurries. Mostly cloudy.6 mph86%29.27 "Hg4 mi
3:30 PM21 °FSnow flurries. Mostly cloudy.6 mph93%29.27 "Hg4 mi
3:00 PM21 °FMostly cloudy.8 mph93%29.27 "Hg4 mi
2:30 PM21 °FSnow flurries. Ice fog.6 mph93%29.27 "Hg2 mi
2:00 PM21 °FSnow flurries. Ice fog.8 mph93%29.27 "Hg2 mi
1:30 PM21 °FSnow flurries. Mostly cloudy.6 mph93%29.27 "Hg4 mi
1:00 PM21 °FSnow flurries. Mostly cloudy.6 mph93%29.27 "Hg4 mi
Weather by CustomWeather, © 2014

See weather overviewHow to use our weather pages